Simultaneous Nadir Overpasses (SNOs) Predictions

Prediction of SNOs between FY3D and NOAA-19 Satellite Orbit:

Table of predicted SNOs for the next 14.0 days since TLE Epoch: 10/12/2019
Index Date (FY3D) Time (FY3D) Lat,Lon (FY3D) SZA (FY3D ) Date (NOAA-19) Time (NOAA-19) Lat,Lon (NOAA-19) SZA (NOAA-19 ) Distance(km) Time Diff (sec)
1 10/12/2019 17:05:42 -79.90, 66.90 91.04 10/12/2019 17:04:36 -79.87, 66.84 91.03 2.95 66
2 10/12/2019 17:56:27 79.91,-125.85 88.99 10/12/2019 17:55:32 79.89,-125.77 88.98 2.80 55
3 10/12/2019 18:47:11 -79.89, 41.57 91.02 10/12/2019 18:46:36 -79.89, 41.56 91.01 0.16 35
4 10/12/2019 19:37:56 79.90,-151.19 89.01 10/12/2019 19:37:32 79.90,-151.04 89.00 2.85 24
5 10/12/2019 20:28:40 -79.89, 16.23 91.00 10/12/2019 20:28:36 -79.91, 16.29 90.99 2.62 4
6 10/12/2019 21:19:25 79.90,-176.52 89.03 10/12/2019 21:19:33 79.90,-176.62 89.03 2.02 8
7 10/12/2019 22:10:10 -79.92, -9.39 90.93 10/12/2019 22:10:37 -79.91, -9.28 90.96 2.37 27
8 10/12/2019 23:00:54 79.89, 158.15 89.04 10/12/2019 23:01:33 79.92, 158.10 89.05 2.61 39
9 10/12/2019 23:51:39 -79.91, -34.72 90.91 10/12/2019 23:52:38 -79.90, -34.86 90.94 3.06 59




NCC Satellite Simultaneous Nadir Overpasses (SNOs) Prediction Service
